When you browse on this site, cookies collect data to enhance your experience and personalize the content and advertising you see.
Visit our Privacy Policy to learn more. By continuing to use the site, you agree to this use of cookies and data.
  • In Hungary
  • List of Countries
  • For 7 days
  • Water Temperature
  • Satellite Maps
  • Weather Map
  • News
  • Weather Widgets
  • user-avatar
    Login

    Hourly Weather Knighton

    Today, 22 January, Tuesday

    Time Temperature Precipitation Wind Pressure Humidity
    00:00 +1°C° 0 mm 4 mps 724 mmHg 87%
    01:00 0°C° 0 mm 4 mps 723 mmHg 87%
    02:00 -1°C° 0 mm 5 mps 723 mmHg 86%
    03:00 -2°C° 0 mm 5 mps 723 mmHg 85%
    04:00 -2°C° 0 mm 5 mps 722 mmHg 85%
    05:00 -2°C° 0 mm 5 mps 722 mmHg 85%
    06:00 -2°C° 0 mm 3 mps 722 mmHg 90%
    07:00 -2°C° 0 mm 3 mps 722 mmHg 89%
    08:00 -2°C° 0 mm 3 mps 722 mmHg 88%
    09:00 -2°C° 0 mm 4 mps 721 mmHg 87%
    10:00 -1°C° 0.1 mm 4 mps 721 mmHg 83%
    11:00 0°C° 0.1 mm 5 mps 721 mmHg 80%
    12:00 +1°C° 0 mm 5 mps 720 mmHg 77%
    13:00 +1°C° 0.3 mm 5 mps 720 mmHg 79%
    14:00 0°C° 0.3 mm 5 mps 720 mmHg 80%
    15:00 0°C° 0.3 mm 5 mps 719 mmHg 81%
    16:00 -1°C° 0 mm 4 mps 719 mmHg 84%
    17:00 -2°C° 0 mm 4 mps 719 mmHg 87%
    18:00 -2°C° 0 mm 3 mps 718 mmHg 91%
    19:00 -2°C° 0 mm 3 mps 718 mmHg 91%
    20:00 -2°C° 0 mm 3 mps 718 mmHg 91%
    21:00 -4°C° 0 mm 3 mps 718 mmHg 91%
    22:00 -2°C° 0.1 mm 3 mps 719 mmHg 90%
    23:00 -2°C° 0.1 mm 3 mps 719 mmHg 90%

    Tomorrow, 23 January, Wednesday

    Time Temperature Precipitation Wind Pressure Humidity
    00:00 -2°C° 0.1 mm 3 mps 719 mmHg 89%
    01:00 -2°C° 0 mm 3 mps 719 mmHg 89%
    02:00 -4°C° 0 mm 3 mps 719 mmHg 88%
    03:00 -4°C° 0 mm 3 mps 719 mmHg 88%
    04:00 -4°C° 0 mm 3 mps 719 mmHg 88%
    05:00 -4°C° 0 mm 3 mps 720 mmHg 89%
    06:00 -4°C° 0 mm 3 mps 720 mmHg 89%
    07:00 -4°C° 0 mm 3 mps 721 mmHg 89%
    08:00 -4°C° 0 mm 3 mps 721 mmHg 88%
    09:00 -4°C° 0 mm 3 mps 722 mmHg 88%
    10:00 -1°C° 0 mm 3 mps 722 mmHg 84%
    11:00 -1°C° 0 mm 4 mps 723 mmHg 80%
    12:00 +1°C° 0 mm 4 mps 723 mmHg 76%
    13:00 +2°C° 0 mm 3 mps 724 mmHg 77%
    14:00 +2°C° 0 mm 3 mps 724 mmHg 79%
    15:00 +3°C° 0 mm 2 mps 724 mmHg 80%
    16:00 +1°C° 0 mm 2 mps 724 mmHg 83%
    17:00 -1°C° 0 mm 2 mps 724 mmHg 86%
    18:00 -2°C° 0 mm 2 mps 724 mmHg 89%
    19:00 -2°C° 0 mm 2 mps 725 mmHg 90%
    20:00 -2°C° 0 mm 2 mps 725 mmHg 90%
    21:00 -2°C° 0 mm 2 mps 725 mmHg 90%
    22:00 -2°C° 0 mm 2 mps 725 mmHg 91%
    23:00 -2°C° 0 mm 2 mps 726 mmHg 91%

    Day after tomorrow, 24 January, Thursday

    Time Temperature Precipitation Wind Pressure Humidity
    00:00 -1°C° 0 mm 2 mps 726 mmHg 92%
    01:00 -1°C° 0 mm 2 mps 726 mmHg 93%
    02:00 -1°C° 0 mm 3 mps 726 mmHg 94%
    03:00 0°C° 0 mm 3 mps 726 mmHg 95%
    04:00 +1°C° 0.1 mm 3 mps 726 mmHg 95%
    05:00 0°C° 0.1 mm 4 mps 726 mmHg 95%
    06:00 +1°C° 0.1 mm 4 mps 726 mmHg 95%
    07:00 +1°C° 0.1 mm 4 mps 726 mmHg 95%
    08:00 +1°C° 0.1 mm 4 mps 726 mmHg 94%
    09:00 +1°C° 0.1 mm 3 mps 726 mmHg 94%
    10:00 +1°C° 0 mm 4 mps 727 mmHg 90%
    11:00 +3°C° 0 mm 4 mps 727 mmHg 85%
    12:00 +3°C° 0 mm 5 mps 728 mmHg 81%
    13:00 +4°C° 0 mm 4 mps 728 mmHg 82%
    14:00 +3°C° 0 mm 3 mps 728 mmHg 84%
    15:00 +3°C° 0 mm 3 mps 728 mmHg 85%
    16:00 +3°C° 0 mm 2 mps 729 mmHg 87%
    17:00 +2°C° 0 mm 2 mps 729 mmHg 89%
    18:00 +2°C° 0 mm 2 mps 729 mmHg 92%
    19:00 +2°C° 0 mm 1 mps 730 mmHg 91%
    20:00 +2°C° 0 mm 1 mps 730 mmHg 91%
    21:00 +2°C° 0 mm 1 mps 731 mmHg 91%
    22:00 +1°C° 0 mm 0 mps 731 mmHg 90%
    23:00 +1°C° 0 mm 0 mps 731 mmHg 89%

    25 January, Friday

    Time Temperature Precipitation Wind Pressure Humidity
    00:00 +1°C° 0 mm 0 mps 732 mmHg 88%
    01:00 0°C° 0 mm 0 mps 732 mmHg 88%
    02:00 0°C° 0 mm 0 mps 732 mmHg 88%
    03:00 0°C° 0 mm 0 mps 732 mmHg 87%
    04:00 0°C° 0 mm 0 mps 732 mmHg 87%
    05:00 +1°C° 0 mm 1 mps 733 mmHg 87%
    06:00 +2°C° 0 mm 1 mps 733 mmHg 86%
    07:00 +2°C° 0 mm 1 mps 733 mmHg 87%
    08:00 +2°C° 0 mm 1 mps 734 mmHg 88%
    09:00 +1°C° 0 mm 2 mps 734 mmHg 89%
    10:00 +1°C° 0.1 mm 2 mps 734 mmHg 89%
    11:00 +2°C° 0.1 mm 2 mps 735 mmHg 89%
    12:00 +2°C° 0.1 mm 2 mps 735 mmHg 90%
    13:00 +3°C° 0.1 mm 2 mps 735 mmHg 91%
    14:00 +3°C° 0.1 mm 2 mps 735 mmHg 92%
    15:00 +3°C° 0.1 mm 2 mps 735 mmHg 93%
    16:00 +3°C° 0 mm 2 mps 735 mmHg 94%
    17:00 +2°C° 0 mm 2 mps 735 mmHg 95%
    18:00 +2°C° 0 mm 2 mps 735 mmHg 95%
    19:00 +2°C° 0 mm 2 mps 735 mmHg 96%
    20:00 +2°C° 0 mm 2 mps 735 mmHg 96%
    21:00 +2°C° 0 mm 2 mps 735 mmHg 97%
    22:00 +3°C° 0 mm 2 mps 735 mmHg 97%
    23:00 +3°C° 0 mm 2 mps 734 mmHg 97%

    26 January, Saturday

    Time Temperature Precipitation Wind Pressure Humidity
    00:00 +3°C° 0 mm 3 mps 734 mmHg 97%
    01:00 +3°C° 0 mm 3 mps 733 mmHg 97%
    02:00 +3°C° 0 mm 3 mps 733 mmHg 97%
    03:00 +3°C° 0 mm 3 mps 732 mmHg 98%
    04:00 +1°C° 0 mm 4 mps 731 mmHg 97%
    05:00 +1°C° 0 mm 4 mps 730 mmHg 96%
    06:00 +1°C° 0 mm 4 mps 729 mmHg 95%
    07:00 +2°C° 0 mm 5 mps 729 mmHg 94%
    08:00 +3°C° 0 mm 5 mps 728 mmHg 94%
    09:00 +4°C° 0 mm 6 mps 727 mmHg 93%
    10:00 +4°C° 0.5 mm 7 mps 726 mmHg 91%
    11:00 +4°C° 0.5 mm 7 mps 724 mmHg 89%
    12:00 +5°C° 0.5 mm 8 mps 723 mmHg 88%
    13:00 +5°C° 0.7 mm 9 mps 723 mmHg 88%
    14:00 +5°C° 0.7 mm 10 mps 722 mmHg 88%
    15:00 +3°C° 0.7 mm 10 mps 721 mmHg 88%
    16:00 +2°C° 0.1 mm 10 mps 722 mmHg 85%
    17:00 +1°C° 0.1 mm 10 mps 723 mmHg 81%
    18:00 0°C° 0.1 mm 10 mps 724 mmHg 77%
    19:00 0°C° 0 mm 10 mps 724 mmHg 76%
    20:00 0°C° 0 mm 10 mps 725 mmHg 76%
    21:00 0°C° 0 mm 9 mps 726 mmHg 75%
    22:00 0°C° 0 mm 9 mps 726 mmHg 76%
    23:00 0°C° 0 mm 9 mps 727 mmHg 78%

    27 January, Sunday

    Time Temperature Precipitation Wind Pressure Humidity
    00:00 0°C° 0 mm 8 mps 727 mmHg 79%
    01:00 -1°C° 0 mm 7 mps 728 mmHg 80%
    02:00 -1°C° 0 mm 6 mps 728 mmHg 82%
    03:00 -1°C° 0 mm 5 mps 728 mmHg 84%
    04:00 -1°C° 0.1 mm 5 mps 729 mmHg 84%
    05:00 -1°C° 0.1 mm 5 mps 729 mmHg 85%
    06:00 -1°C° 0.1 mm 5 mps 729 mmHg 85%
    07:00 -1°C° 0.1 mm 5 mps 730 mmHg 84%
    08:00 -2°C° 0.1 mm 4 mps 730 mmHg 84%
    09:00 -2°C° 0.1 mm 4 mps 730 mmHg 83%
    10:00 -1°C° 0 mm 5 mps 731 mmHg 78%
    11:00 -1°C° 0 mm 6 mps 731 mmHg 72%
    12:00 0°C° 0 mm 7 mps 731 mmHg 67%
    13:00 +1°C° 0 mm 6 mps 731 mmHg 67%
    14:00 +1°C° 0 mm 5 mps 731 mmHg 67%
    15:00 0°C° 0 mm 5 mps 731 mmHg 68%
    16:00 -1°C° 0 mm 4 mps 731 mmHg 73%
    17:00 -2°C° 0 mm 4 mps 732 mmHg 79%
    18:00 -4°C° 0 mm 3 mps 732 mmHg 84%
    19:00 -4°C° 0 mm 3 mps 732 mmHg 86%
    20:00 -4°C° 0 mm 3 mps 733 mmHg 87%
    21:00 -4°C° 0 mm 3 mps 733 mmHg 88%
    22:00 -4°C° 0 mm 3 mps 733 mmHg 88%
    23:00 -4°C° 0 mm 3 mps 733 mmHg 88%
    Show more